Weather History for KLOZ - December, 2011

Change the Weather History Date:

Friday, December 9, 2011

  Actual Average Record
Temperature  
Mean Temperature 35 °F 40 °F  
Max Temperature 46 °F 49 °F 68 °F (2007)
Min Temperature 23 °F 31 °F 10 °F (1976)
Degree Days  
Heating Degree Days 30 25  
Month to date heating degree days 200 216  
Since 1 July heating degree days 1052 1046  
Cooling Degree Days 0 0  
Month to date cooling degree days 0 0  
Year to date cooling degree days 1249 1190  
Moisture  
Dew Point 24 °F    
Average Humidity 71    
Maximum Humidity 100    
Minimum Humidity 41    
Precipitation  
Precipitation 0.00 in 0.16 in 1.81 in (1961)
Month to date precipitation 1.46 1.31  
Year to date precipitation 58.36 44.21  
Sea Level Pressure  
Sea Level Pressure 30.30 in    
Wind  
Wind Speed 2 mph (WNW)    
Max Wind Speed 10 mph    
Max Gust Speed 13 mph    
Visibility 10 miles    
Events      
T = Trace of Precipitation, MM = Missing Value Source: NWS Daily Summary

Daily Weather History Graph

Daily Weather History Graph

Search for Another Location

Airport or City:

Trip Planner

Search our weather history database for the weather conditions in past years. The results will help you decide how hot, cold, wet, or windy it might be!

Date:

Astronomy

Dec. 09, 2011 Rise Set
Actual Time 7:37 AM EST 5:19 PM EST
Civil Twilight 7:09 AM EST 5:48 PM EST
Nautical Twilight 6:36 AM EST 6:20 PM EST
Astronomical Twilight 6:04 AM EST 6:52 PM EST
Moon 4:42 PM EST (12/9) 6:44 AM EST (12/9)
Length of Visible Light 10h 39m
Length of Day
9h 41m
Waxing Gibbous, 99% of the Moon is Illuminated
Dec 9
Waxing Gibbous
Dec 10
Full
Dec 17
Last Quarter
Dec 24
New
Jan 1
First Quarter

Hourly Weather History & Observations

Time (EST) Temp. Windchill Dew Point Humidity Pressure Visibility Wind Dir Wind Speed Gust Speed Precip Events Conditions
12:53 AM 27.0 °F - 25.0 °F 92% 30.25 in 10.0 mi Calm Calm - N/A   Clear
1:53 AM 25.0 °F - 24.1 °F 96% 30.26 in 8.0 mi Calm Calm - N/A   Clear
2:53 AM 25.0 °F - 23.0 °F 92% 30.26 in 10.0 mi Calm Calm - N/A   Clear
3:53 AM 24.1 °F - 21.9 °F 91% 30.27 in 10.0 mi Calm Calm - N/A   Clear
4:53 AM 24.1 °F - 21.9 °F 91% 30.27 in 10.0 mi Calm Calm - N/A   Clear
5:53 AM 23.0 °F - 21.0 °F 92% 30.27 in 10.0 mi Calm Calm - N/A   Clear
6:53 AM 23.0 °F - 21.2 °F 93% 30.25 in 10.0 mi Calm Calm - N/A   Clear
7:53 AM 23.0 °F - 19.9 °F 88% 30.30 in 9.0 mi Calm Calm - N/A   Clear
8:53 AM 27.0 °F - 25.0 °F 92% 30.32 in 10.0 mi Calm Calm - N/A   Clear
9:53 AM 32.0 °F - 28.0 °F 85% 30.33 in 10.0 mi Calm Calm - N/A   Clear
10:53 AM 37.0 °F - 28.9 °F 73% 30.32 in 10.0 mi Calm Calm - N/A   Clear
11:53 AM 42.1 °F - 26.1 °F 53% 30.30 in 10.0 mi Calm Calm - N/A   Clear
12:53 PM 44.1 °F 39.5 °F 25.0 °F 47% 30.28 in 10.0 mi West 8.1 mph - N/A   Clear
1:53 PM 44.1 °F 40.1 °F 23.0 °F 43% 30.26 in 10.0 mi SSW 6.9 mph - N/A   Clear
2:53 PM 45.0 °F 40.6 °F 25.0 °F 46% 30.25 in 10.0 mi West 8.1 mph - N/A   Clear
3:53 PM 45.0 °F 42.6 °F 24.1 °F 44% 30.26 in 10.0 mi West 4.6 mph - N/A   Clear
4:53 PM 42.1 °F 39.2 °F 24.1 °F 49% 30.28 in 10.0 mi NW 4.6 mph - N/A   Clear
5:53 PM 39.9 °F 37.8 °F 23.0 °F 51% 30.29 in 10.0 mi NW 3.5 mph - N/A   Clear
6:53 PM 37.0 °F - 25.0 °F 62% 30.31 in 10.0 mi Calm Calm - N/A   Clear
7:53 PM 32.0 °F 28.7 °F 26.1 °F 79% 30.34 in 10.0 mi WNW 3.5 mph - N/A   Clear
8:53 PM 32.0 °F - 26.1 °F 79% 30.35 in 10.0 mi Calm Calm - N/A   Clear
9:53 PM 32.0 °F - 26.1 °F 79% 30.35 in 10.0 mi Calm Calm - N/A   Clear
10:53 PM 30.0 °F - 25.0 °F 82% 30.36 in 10.0 mi Calm Calm - N/A   Partly Cloudy
11:53 PM 30.0 °F 25.2 °F 25.0 °F 82% 30.36 in 10.0 mi NNE 4.6 mph - N/A   Clear